Home > Weather > Orléans > Past weeks

Flag for France Weather for the Past 2 Weeks in Orléans, France

Now
52 °F

Scattered clouds.


Feels Like: 44 °F
Forecast: 35 / 45 °F
Wind: 38 mph from West

Location: Orleans Airport

Current Time: Feb 9, 2016 at 1:50:19 PM

Latest Report: Feb 9, 2016 at 1:00 PM


Visibility: N/A

Pressure: 29.18 "Hg

Humidity: 82%

Dew point: 46 °F

Location of OrléansLocation

Historic Weather in Orléans — Graph

°F

Orléans Temperature Yesterday

Maximum temperature yesterday: 54 °F (at 12:30 PM)
Minimum temperature yesterday: 46 °F (at 12:00 AM)
Average temperature yesterday: 49 °F

High & Low Weather Summary for the Past Weeks

 TemperatureHumidityPressure
High59 °F (Feb 6, 4:30 PM)100% (Jan 26, 2:30 AM)30.51 "Hg (Jan 26, 2:30 AM)
Low34 °F (Jan 29, 3:00 AM)48% (Feb 6, 4:30 PM)29.15 "Hg (Feb 9, 11:30 AM)
Average48 °F88%30.13 "Hg
* Reported Jan 25 12:00 Noon — Feb 9 12:30 PM, Orléans, Weather by CustomWeather, © 2016

Note: Actual official high and low records may vary slightly from our data, if they occured in-between our weather recording intervals... More about our weather records

Advertising

Orléans Weather History for the Previous 24 Hours

 ConditionsComfort  
Time TempWeatherWind HumidityBarometerVisibility
12:30 PM
Tue, Feb 9
52 °FBroken clouds.38 mph77%29.18 "HgN/A
11:30 AM54 °FScattered clouds.33 mph77%29.15 "HgN/A
11:00 AM52 °FPartly sunny.26 mph88%29.18 "HgN/A
10:30 AM50 °FThundershowers. Partly sunny.29 mph94%29.21 "HgN/A
10:00 AM52 °FThunderstorms. Broken clouds.35 mph88%29.21 "HgN/A
9:00 AM52 °FLight rain. Broken clouds.29 mph94%29.27 "HgN/A
8:30 AM50 °FLight rain. Fog.30 mph94%29.30 "Hg3 mi
8:00 AM48 °FLight rain. Mostly cloudy.26 mph94%29.33 "HgN/A
7:30 AM48 °FLight rain. Mostly cloudy.26 mph94%29.36 "Hg5 mi
7:00 AM48 °FLight rain. Low clouds.24 mph94%29.39 "Hg5 mi
6:30 AM48 °FLight rain. Low clouds.20 mph94%29.45 "Hg4 mi
6:00 AM46 °FMostly cloudy.20 mph100%29.47 "Hg6 mi
5:30 AM46 °FLight rain. Mostly cloudy.16 mph100%29.53 "Hg4 mi
4:30 AM46 °FLight rain. Partly cloudy.14 mph93%29.62 "Hg4 mi
4:00 AM46 °FLight rain. Partly cloudy.15 mph93%29.65 "HgN/A
3:30 AM46 °FPartly cloudy.15 mph93%29.68 "HgN/A
3:00 AM46 °FPassing clouds.14 mph93%29.71 "HgN/A
2:00 AM46 °FPassing clouds.16 mph87%29.74 "HgN/A
1:30 AM46 °FPassing clouds.15 mph87%29.74 "HgN/A
1:00 AM46 °FPassing clouds.18 mph87%29.74 "HgN/A
12:30 AM46 °FClear.18 mph76%29.74 "Hg10 mi
12:00 AM46 °FPartly cloudy.18 mph82%29.74 "HgN/A
11:30 PM
Mon, Feb 8
46 °FPassing clouds.21 mph82%29.74 "HgN/A
11:00 PM46 °FPartly cloudy.20 mph82%29.77 "HgN/A
10:30 PM46 °FClear.18 mph82%29.77 "Hg10 mi
10:00 PM46 °FClear.17 mph82%29.77 "Hg10 mi
9:30 PM46 °FPassing clouds.16 mph82%29.77 "HgN/A
9:00 PM46 °FPassing clouds.17 mph82%29.77 "HgN/A
8:30 PM46 °FPartly cloudy.15 mph82%29.77 "HgN/A
8:00 PM46 °FPassing clouds.18 mph76%29.77 "HgN/A
7:30 PM48 °FClear.18 mph71%29.74 "Hg10 mi
7:00 PM48 °FPassing clouds.23 mph71%29.74 "HgN/A
6:30 PM46 °FPartly cloudy.23 mph82%29.74 "HgN/A
6:00 PM48 °FDrizzle. Broken clouds.22 mph76%29.71 "HgN/A
5:30 PM46 °FLight rain. Scattered clouds.23 mph82%29.71 "HgN/A
5:00 PM48 °FPartly sunny.23 mph82%29.68 "HgN/A
4:30 PM46 °FLight rain. Fog.29 mph87%29.68 "Hg3 mi
4:00 PM52 °FBroken clouds.33 mph62%29.65 "HgN/A
3:30 PM52 °FPassing clouds.31 mph67%29.65 "HgN/A
3:00 PM54 °FBroken clouds.32 mph63%29.62 "HgN/A
2:30 PM52 °FSunny.29 mph62%29.62 "Hg10 mi
2:00 PM52 °FSunny.40 mph58%29.62 "Hg10 mi
1:30 PM52 °FBroken clouds.39 mph62%29.62 "HgN/A
1:00 PM52 °FBroken clouds.35 mph67%29.62 "HgN/A
Weather by CustomWeather, © 2016

See weather overviewHow to use our weather pages